Regional Weather Roundup
Issued by NWS Newport/Morehead, NC

Current Version | Previous Version | Text Only | Print | Product List | Glossary On
Versions: 1 2 3 4 5 6 7 8 9 10 11 12 13 14 15 16 17 18 19 20 21 22 23 24 25 26 27 28 29 30 31 32 33 34 35 36 37 38 39 40 41 42 43 44 45 46 47 48 49 50
000
ASUS42 KMHX 250125
RWRMHX
WEATHER ROUNDUP FOR EASTERN NORTH CAROLINA
NATIONAL WEATHER SERVICE NEWPORT/MOREHEAD CITY NC
800 PM EST FRI FEB 24 2017

NOTE: "FAIR" INDICATES FEW OR NO CLOUDS BELOW 12,000 FEET
WITH NO SIGNIFICANT WEATHER AND/OR OBSTRUCTIONS TO VISIBILITY

NCZ015>017-031-032-045>047-102-103-250200-
NORTH COAST

CITY           SKY/WX    TMP DP  RH WIND       PRES   REMARKS
EDENTON        CLEAR     67  59  75 SE8       29.86F
ELIZABETH CITY CLEAR     64  59  83 SE9       29.87F
KITTY HAWK     NOT AVBL
MANTEO         CLEAR     61  58  88 SE6       29.89F

$$

NCZ045>047-081-094-103-104-250200-
CENTRAL COAST

CITY           SKY/WX    TMP DP  RH WIND       PRES   REMARKS
FRISCO         PTCLDY    66  59  78 E5        29.87S

$$

NCZ095-097-098-100-101-250200-
SOUTHERN COAST

CITY           SKY/WX    TMP DP  RH WIND       PRES   REMARKS
BEAUFORT       CLEAR     62  59  90 CALM      29.87R
CEDAR ISLAND   NOT AVBL
JACKSONVILLE   CLEAR     66  60  81 CALM      29.84F
PINEY ISLAND   CLEAR    N/A N/A N/A NE6       29.87R
WILMINGTON     CLEAR     63  60  90 CALM      29.85S


$$

NCZ011>013-027>030-043-044-078>080-089-090>093-098-250200-
COASTAL PLAIN

CITY           SKY/WX    TMP DP  RH WIND       PRES   REMARKS
AHOSKIE          N/A     62  58  86 CALM      29.86S
CLINTON        CLEAR     68  60  77 CALM      29.85S
ELIZABETHTOWN  CLEAR     67  59  76 SE5       29.85R
GOLDSBORO      CLEAR     68  64  86 SE5       29.83R
GREENVILLE     CLEAR     66  61  82 SE5       29.88S
HAVELOCK       CLEAR     61  58  90 E5        29.87F
KENANSVILLE    CLEAR     66  59  77 SE3       29.85S
KINSTON        CLEAR     66  59  77 SE5       29.86S
NEW BERN       CLEAR     65  60  84 SE5       29.86F
RICHLANDS      CLEAR     61  58  90 CALM      29.86S
ROCKY MOUNT    CLEAR     68  60  75 SE5       29.84S
WASHINGTON     CLEAR     64  58  80 CALM      29.85S
WHITEVILLE     CLEAR     67  60  76 CALM      29.85S

$$

AMZ130-135-150-152-154-156-158-170-250-252-270-ANZ085-086-088-633-658-670-250200-
MARINE OBSERVATIONS

STATION/POSITION TIME  TEMP    WIND        PRES    WAVE   SWELL
                       AIR SEA DIR/SP/G            HT/PER HT/PER
                 (UTC) (F)     (DEG/KT/KT) (MB)    (FT/S) (FT/S)
CHESAPEAKE LIGHT NOT AVBL
64 E VA BEACH    0050   58 55  100/  4/  6 1012.0    6/11   7/11
DUCK             0100   57 49  130/  9/ 11 1011.4
2 E DUCK         0100      53                N/A     5/13   2/13
OREGON INLET     0100   58 59   70/  3/  4 1011.7
13E OREGON INLT  NOT AVBL
HATTERAS CG      0100   66 63   70/  4/  5 1011.0
DIAMOND BUOY     0050   71 77  100/ 14/ 16 1010.7    8/10   7/10
CAPE LOOKOUT     0100   66      40/  5/  5 1011.0
BEAUFORT LAB     0100   65 63   10/  3/  4 1010.4
30 SE NEW RVR IN 0108   68      30/  6/ 10 1011.1
30 SE NEW RVR IN 0113      70                N/A     8/11   3/11
27 SE WRIGHTSVLE 0108   68 67   50/  8/ 10 1009.9
5 SE WRIGHTSVLE  0108   61 59   60/  4/  8 1010.6
225 S CAPE HAT   0050   69 70   30/  6/  8 1007.4   10/11  10/11
41 SE CHARLESTON 0050   69 71   30/  8/ 10 1010.2    7/11   7/11

$$




USA.gov is the U.S. government's official web portal to all federal, state and local government web resources and services.